Погода в Первомайске

Россия / Нижегородская область     54°52′03″N   43°48′04″E
темп.,
°C
ветер,
м/с
пор.,
м/с
влажн.,
%
обл.,
%
осадки,
мм/ч
давл.,
гПа
погр.,
м
8 мая, сб
сб800:00+5ю11912 0.0 101710
03:00+4ююв22925 0.0 101717
06:00+6ююв238712 0.0 1017104
09:00+11юв356463 0.0 1016662
12:00+14вюв4547100 0.0 10141275
15:00+15ююв574953 0.0 10121362
18:00+13юв597098 0.0 1010780
21:00+11ююв51376100 0.0 1009452
9 мая, вс
вс900:00+11ююв61584100 0.4 1007620
03:00+11ю61479100 0.6 1006593
06:00+11ю4992100 0.1 1006532
09:00+11ююз3890100 0.3 1008581
12:00+9юз4991100 2.5 1010631
15:00+7з5893100 4.4 1013505
18:00+6сз5889100 0.5 1016851
21:00+6сз41086100 0.6 10191029
10 мая, пн
пн1000:00+4сз389399 0.0 1020292
03:00+3ссз41192100 0.0 1022430
06:00+4с51484100 0.0 1024748
09:00+9с71058100 0.0 10261016
12:00+13ссв6845100 0.0 10261401
15:00+14ссв6844100 0.0 10261477
18:00+12ссв595696 0.0 1027875
21:00+7ссв3107846 0.0 1028183
11 мая, вт
вт1100:00+5св311867 0.0 1029257
03:00+5св414875 0.0 1029377
06:00+7св614765 0.0 1030535
09:00+12всв7115698 0.0 1030763
12:00+15всв6847100 0.0 1029919
15:00+16всв6851100 0.0 1028959
18:00+15всв5106291 0.0 1028662
21:00+10св4127717 0.0 1028311
12 мая, ср
ср1200:00+9всв3127815 0.0 1029252
03:00+10всв41171100 0.0 1028257
06:00+10всв51271100 0.0 1028309
09:00+13всв51269100 0.0 1028423
12:00+16в61064100 0.0 1028508
15:00+21в685784 0.0 10261079
18:00+18в51066100 0.0 1026618
21:00+12всв4118163 0.0 1026233